Location: Chuathbaluk
(61.5726°N, 159.2454°W)
Time: 13:31:55
(UTC+00:00)

NUDT-PHONESAT - Pass Details

Date: 18 January 2021
Orbit: 480 x 498 km, 97.4° (Epoch: 01 March)

Event Time Altitude Azimuth Distance (km) Brightness Sun altitude
Rises 03:08:51 0° 137° (SE) 2,572 ? -7.0°
Reaches altitude 10° 03:11:00 10° 128° (SE) 1,697 ? -7.2°
Maximum altitude 03:14:22 36° 62° (ENE) 812 ? -7.6°
Drops below altitude 10° 03:17:46 10° 355° (N) 1,717 ? -7.9°
Sets 03:19:58 0° 347° (NNW) 2,608 ? -8.2°
